Weather History for KYKN - April, 2013

Change the Weather History Date:

Monday, April 8, 2013

  Actual Average Record
Temperature  
Mean Temperature 48 °F -  
Max Temperature 60 °F 58 °F 91 °F (1988)
Min Temperature 37 °F 32 °F 10 °F (1997)
Degree Days  
Heating Degree Days 16    
Moisture  
Dew Point 43 °F    
Average Humidity 89    
Maximum Humidity 100    
Minimum Humidity 63    
Precipitation  
Precipitation 0.00 in - - ()
Sea Level Pressure  
Sea Level Pressure 29.71 in    
Wind  
Wind Speed 7 mph (NE)    
Max Wind Speed 24 mph    
Max Gust Speed 33 mph    
Visibility 5 miles    
Events      
Averages and records for this station are not official NWS values.
T = Trace of Precipitation, MM = Missing Value Source: NWS Daily Summary

Daily Weather History Graph

Daily Weather History Graph

Search for Another Location

Airport or City:

Trip Planner

Search our weather history database for the weather conditions in past years. The results will help you decide how hot, cold, wet, or windy it might be!

Date:

Astronomy

Apr. 08, 2013 Rise Set
Actual Time 6:59 AM CDT 8:04 PM CDT
Civil Twilight 6:30 AM CDT 8:33 PM CDT
Nautical Twilight 5:55 AM CDT 9:08 PM CDT
Astronomical Twilight 5:19 AM CDT 9:44 PM CDT
Moon 5:52 AM CDT 6:38 PM CDT
Length of Visible Light 14h 03m
Length of Day
13h 05m
Waning Crescent, 3% of the Moon is Illuminated
Apr 8
Waning Crescent
Apr 10
New
Apr 18
First Quarter
Apr 25
Full
May 2
Last Quarter

Hourly Weather History & Observations

Time (CDT) Temp. Windchill Dew Point Humidity Pressure Visibility Wind Dir Wind Speed Gust Speed Precip Events Conditions
12:15 AM 44.6 °F 41.4 °F 42.8 °F 93% 29.63 in 3.0 mi NE 5.8 mph - N/A   Clear
12:35 AM 44.6 °F 43.1 °F 42.8 °F 93% 29.63 in 3.0 mi NE 3.5 mph - N/A   Clear
12:55 AM 42.8 °F 41.1 °F 42.8 °F 100% 29.62 in 2.5 mi NE 3.5 mph - N/A   Clear
1:15 AM 42.8 °F 41.1 °F 42.8 °F 100% 29.63 in 2.5 mi NE 3.5 mph - N/A   Clear
1:35 AM 42.8 °F 41.1 °F 42.8 °F 100% 29.63 in 2.5 mi East 3.5 mph - N/A   Clear
1:55 AM 42.8 °F - 41.0 °F 93% 29.64 in 1.0 mi Calm Calm - N/A   Clear
2:15 AM 42.8 °F - 41.0 °F 93% 29.64 in 0.2 mi Calm Calm - N/A   Unknown
2:35 AM 41.0 °F - 41.0 °F 100% 29.63 in 0.2 mi Calm Calm - N/A   Mostly Cloudy
2:55 AM 39.2 °F - 39.2 °F 100% 29.63 in 0.2 mi Calm Calm - N/A   Unknown
3:15 AM 41.0 °F - 39.2 °F 93% 29.63 in 0.2 mi Calm Calm - N/A   Mostly Cloudy
3:35 AM 37.4 °F - 37.4 °F 100% 29.63 in 0.2 mi Calm Calm - N/A   Unknown
3:55 AM 37.4 °F 33.8 °F 35.6 °F 93% 29.63 in 0.2 mi SE 4.6 mph - N/A   Unknown
4:15 AM 37.4 °F 34.9 °F 35.6 °F 93% 29.63 in 0.2 mi SSE 3.5 mph - N/A   Unknown
4:35 AM 39.2 °F 37.0 °F 37.4 °F 93% 29.62 in 0.2 mi SW 3.5 mph - N/A   Unknown
4:55 AM 37.4 °F - 37.4 °F 100% 29.62 in 0.2 mi Calm Calm - N/A   Unknown
5:15 AM 37.4 °F 34.9 °F 37.4 °F 100% 29.62 in 0.2 mi WNW 3.5 mph - N/A   Unknown
5:35 AM 37.4 °F 34.9 °F 37.4 °F 100% 29.62 in 0.5 mi NNW 3.5 mph - N/A   Scattered Clouds
5:55 AM 37.4 °F - 35.6 °F 93% 29.62 in 0.8 mi Calm Calm - N/A   Scattered Clouds
6:15 AM 37.4 °F 34.9 °F 37.4 °F 100% 29.62 in 0.2 mi NW 3.5 mph - N/A   Mostly Cloudy
6:35 AM 37.4 °F - 37.4 °F 100% 29.63 in 0.2 mi Calm Calm - N/A   Mostly Cloudy
7:15 AM 37.4 °F 33.8 °F 37.4 °F 100% 29.62 in 0.2 mi SSE 4.6 mph - N/A   Mostly Cloudy
7:35 AM 37.4 °F 34.9 °F 37.4 °F 100% 29.62 in 0.2 mi ENE 3.5 mph - N/A   Mostly Cloudy
7:55 AM 37.4 °F 33.8 °F 35.6 °F 93% 29.62 in 0.2 mi ENE 4.6 mph - N/A   Overcast
8:15 AM 37.4 °F 32.8 °F 37.4 °F 100% 29.63 in 0.2 mi NE 5.8 mph - N/A   Overcast
8:35 AM 39.2 °F 35.9 °F 37.4 °F 93% 29.64 in 0.2 mi NE 4.6 mph - N/A   Overcast
8:55 AM 39.2 °F 34.2 °F 39.2 °F 100% 29.66 in 0.5 mi NE 6.9 mph - N/A   Overcast
9:15 AM 41.0 °F 36.4 °F 41.0 °F 100% 29.66 in 0.2 mi East 6.9 mph - N/A   Overcast
9:35 AM 42.8 °F 40.1 °F 42.8 °F 100% 29.67 in 0.2 mi East 4.6 mph - N/A   Mostly Cloudy
9:55 AM 44.6 °F 42.2 °F 44.6 °F 100% 29.66 in 0.2 mi ESE 4.6 mph - N/A   Mostly Cloudy
10:15 AM 44.6 °F 41.4 °F 42.8 °F 93% 29.66 in 0.2 mi East 5.8 mph - N/A   Overcast
10:35 AM 46.4 °F 42.9 °F 46.4 °F 100% 29.68 in 1.5 mi East 6.9 mph - N/A   Overcast
10:55 AM 48.2 °F - 46.4 °F 93% 29.68 in 5.0 mi ENE 4.6 mph - N/A   Overcast
11:15 AM 50.0 °F - 48.2 °F 94% 29.68 in 10.0 mi East 8.1 mph - N/A   Overcast
11:35 AM 48.2 °F - 48.2 °F 100% 29.69 in 5.0 mi NE 12.7 mph - N/A   Overcast
11:55 AM 50.0 °F - 48.2 °F 94% 29.70 in 7.0 mi NE 10.4 mph - N/A   Overcast
12:15 PM 51.8 °F - 48.2 °F 88% 29.70 in 7.0 mi ENE 9.2 mph - N/A   Overcast
12:35 PM 51.8 °F - 48.2 °F 88% 29.70 in 9.0 mi East 8.1 mph - N/A   Overcast
12:55 PM 53.6 °F - 48.2 °F 82% 29.70 in 8.0 mi East 8.1 mph - N/A   Overcast
1:15 PM 53.6 °F - 50.0 °F 88% 29.70 in 7.0 mi ENE 9.2 mph - N/A   Overcast
1:35 PM 55.4 °F - 50.0 °F 82% 29.70 in 8.0 mi ENE 12.7 mph - N/A   Overcast
1:55 PM 55.4 °F - 50.0 °F 82% 29.71 in 8.0 mi NNE 10.4 mph - N/A   Overcast
2:15 PM 57.2 °F - 50.0 °F 77% 29.72 in 9.0 mi NE 9.2 mph - N/A   Mostly Cloudy
2:35 PM 57.2 °F - 50.0 °F 77% 29.71 in 10.0 mi NE 9.2 mph - N/A   Mostly Cloudy
2:55 PM 57.2 °F - 50.0 °F 77% 29.71 in 9.0 mi NNE 12.7 mph - N/A   Overcast
3:15 PM 60.8 °F - 51.8 °F 72% 29.71 in 9.0 mi NNE 12.7 mph 16.1 mph N/A   Mostly Cloudy
3:35 PM 60.8 °F - 51.8 °F 72% 29.71 in 10.0 mi NNE 11.5 mph - N/A   Partly Cloudy
3:55 PM 60.8 °F - 50.0 °F 68% 29.71 in 10.0 mi NE 10.4 mph - N/A   Clear
4:15 PM 60.8 °F - 50.0 °F 68% 29.72 in 10.0 mi NNE 15.0 mph - N/A   Partly Cloudy
4:35 PM 60.8 °F - 48.2 °F 63% 29.72 in 10.0 mi NNE 16.1 mph - N/A   Partly Cloudy
4:55 PM 60.8 °F - 48.2 °F 63% 29.72 in 10.0 mi NNE 18.4 mph - N/A   Clear
5:15 PM 60.8 °F - 48.2 °F 63% 29.73 in 10.0 mi NNE 19.6 mph - N/A   Partly Cloudy
5:35 PM 60.8 °F - 48.2 °F 63% 29.73 in 10.0 mi NNE 16.1 mph 21.9 mph N/A   Clear
5:55 PM 60.8 °F - 48.2 °F 63% 29.74 in 10.0 mi North 18.4 mph 21.9 mph N/A   Clear
6:15 PM 59.0 °F - 48.2 °F 67% 29.74 in 10.0 mi NNE 24.2 mph 27.6 mph N/A   Partly Cloudy
6:35 PM 55.4 °F - 48.2 °F 77% 29.75 in 9.0 mi NNE 21.9 mph 26.5 mph N/A   Clear
6:55 PM 53.6 °F - 46.4 °F 77% 29.76 in 8.0 mi NNE 18.4 mph 24.2 mph N/A   Scattered Clouds
7:15 PM 51.8 °F - 46.4 °F 82% 29.77 in 8.0 mi NNE 19.6 mph 26.5 mph N/A   Mostly Cloudy
7:35 PM 50.0 °F - 44.6 °F 82% 29.80 in 9.0 mi NNE 19.6 mph 27.6 mph N/A   Mostly Cloudy
7:55 PM 46.4 °F 38.7 °F 42.8 °F 87% 29.80 in 9.0 mi NNE 20.7 mph 28.8 mph N/A   Overcast
8:15 PM 46.4 °F 40.1 °F 42.8 °F 87% 29.82 in 8.0 mi NNE 15.0 mph 26.5 mph N/A   Overcast
8:35 PM 44.6 °F 36.9 °F 42.8 °F 93% 29.83 in 7.0 mi NNE 18.4 mph 25.3 mph N/A   Overcast
8:55 PM 44.6 °F 36.4 °F 41.0 °F 87% 29.83 in 8.0 mi NNE 20.7 mph 27.6 mph N/A   Overcast
9:15 PM 44.6 °F 36.1 °F 41.0 °F 87% 29.85 in 8.0 mi NNE 21.9 mph 29.9 mph N/A   Overcast
9:35 PM 42.8 °F 33.5 °F 39.2 °F 87% 29.87 in 9.0 mi NNE 23.0 mph 26.5 mph N/A   Overcast
9:55 PM 42.8 °F 34.5 °F 39.2 °F 87% 29.88 in 10.0 mi NNE 18.4 mph 24.2 mph N/A   Overcast
10:15 PM 41.0 °F 33.1 °F 37.4 °F 87% 29.89 in 8.0 mi NNE 15.0 mph 20.7 mph N/A   Overcast
10:35 PM 39.2 °F 29.6 °F 37.4 °F 93% 29.90 in 7.0 mi NNE 19.6 mph 24.2 mph N/A   Overcast
10:55 PM 39.2 °F 28.5 °F 37.4 °F 93% 29.88 in 7.0 mi NE 24.2 mph 31.1 mph N/A   Overcast
11:15 PM 39.2 °F 29.3 °F 37.4 °F 93% 29.85 in 10.0 mi NE 20.7 mph 33.4 mph N/A   Overcast
11:35 PM 39.2 °F 29.6 °F 37.4 °F 93% 29.84 in 10.0 mi NNE 19.6 mph 29.9 mph N/A   Overcast
11:55 PM 39.2 °F 29.8 °F 37.4 °F 93% 29.88 in 10.0 mi NE 18.4 mph 26.5 mph N/A   Overcast